owner,sensor,date,latitude,longitude,vertical_datum,mass_concentration_of_oxygen_in_sea_water,qcFlag 
DISL,ioos:station:DISL:MHPA:1,2013-09-01T00:00:00Z,30.6671,-87.9365,3.153,6.34,1111122 
DISL,ioos:station:DISL:MHPA:1,2013-09-01T00:30:00Z,30.6671,-87.9365,3.124,6.35,1111122 
DISL,ioos:station:DISL:MHPA:1,2013-09-01T01:00:00Z,30.6671,-87.9365,3.075,6.52,1111122 
DISL,ioos:station:DISL:MHPA:1,2013-09-01T01:30:00Z,30.6671,-87.9365,3.045,5.8,1111122 
DISL,ioos:station:DISL:MHPA:1,2013-09-01T02:00:00Z,30.6671,-87.9365,3.047,6.31,1111122 
DISL,ioos:station:DISL:MHPA:1,2013-09-01T02:30:00Z,30.6671,-87.9365,3.085,6.26,1111122 
DISL,ioos:station:DISL:MHPA:1,2013-09-01T03:00:00Z,30.6671,-87.9365,3.149,6.35,1111122 
DISL,ioos:station:DISL:MHPA:1,2013-09-01T03:30:00Z,30.6671,-87.9365,3.2,6.3,1111122 
DISL,ioos:station:DISL:MHPA:1,2013-09-01T04:00:00Z,30.6671,-87.9365,3.222,6.32,1111122 
DISL,ioos:station:DISL:MHPA:1,2013-09-01T04:30:00Z,30.6671,-87.9365,3.31,6.15,1111122 
DISL,ioos:station:DISL:MHPA:1,2013-09-01T05:00:00Z,30.6671,-87.9365,3.449,6.25,1111122 
DISL,ioos:station:DISL:MHPA:1,2013-09-01T05:30:00Z,30.6671,-87.9365,3.565,5.91,1111122 
DISL,ioos:station:DISL:MHPA:1,2013-09-01T06:00:00Z,30.6671,-87.9365,3.689,5.94,1111122 
DISL,ioos:station:DISL:MHPA:1,2013-09-01T06:30:00Z,30.6671,-87.9365,3.814,5.78,1111122 
DISL,ioos:station:DISL:MHPA:1,2013-09-01T07:00:00Z,30.6671,-87.9365,3.893,5.78,1111122 
DISL,ioos:station:DISL:MHPA:1,2013-09-01T07:30:00Z,30.6671,-87.9365,3.952,5.72,1111122 
DISL,ioos:station:DISL:MHPA:1,2013-09-01T08:00:00Z,30.6671,-87.9365,4.041,5.84,1111122 
DISL,ioos:station:DISL:MHPA:1,2013-09-01T08:30:00Z,30.6671,-87.9365,4.075,5.5,1111122 
DISL,ioos:station:DISL:MHPA:1,2013-09-01T09:00:00Z,30.6671,-87.9365,4.111,5.5,1111122 
DISL,ioos:station:DISL:MHPA:1,2013-09-01T09:30:00Z,30.6671,-87.9365,4.18,5.44,1111122 
DISL,ioos:station:DISL:MHPA:1,2013-09-01T10:00:00Z,30.6671,-87.9365,4.206,5.49,1111122 
DISL,ioos:station:DISL:MHPA:1,2013-09-01T10:30:00Z,30.6671,-87.9365,4.253,5.49,1111122 
DISL,ioos:station:DISL:MHPA:1,2013-09-01T11:00:00Z,30.6671,-87.9365,4.338,5.16,1111122 
DISL,ioos:station:DISL:MHPA:1,2013-09-01T11:30:00Z,30.6671,-87.9365,4.334,4.95,1111122 
DISL,ioos:station:DISL:MHPA:1,2013-09-01T12:00:00Z,30.6671,-87.9365,4.334,4.93,1111122 
DISL,ioos:station:DISL:MHPA:1,2013-09-01T12:30:00Z,30.6671,-87.9365,4.374,4.36,1111122 
DISL,ioos:station:DISL:MHPA:1,2013-09-01T13:00:00Z,30.6671,-87.9365,4.386,4.41,1111122 
DISL,ioos:station:DISL:MHPA:1,2013-09-01T13:30:00Z,30.6671,-87.9365,4.418,4.09,1111122 
DISL,ioos:station:DISL:MHPA:1,2013-09-01T14:00:00Z,30.6671,-87.9365,4.401,4.22,1111122 
DISL,ioos:station:DISL:MHPA:1,2013-09-01T14:30:00Z,30.6671,-87.9365,4.373,3.29,1111122 
DISL,ioos:station:DISL:MHPA:1,2013-09-01T15:00:00Z,30.6671,-87.9365,4.361,4.3,1111122 
DISL,ioos:station:DISL:MHPA:1,2013-09-01T15:30:00Z,30.6671,-87.9365,4.335,5.19,1111122 
DISL,ioos:station:DISL:MHPA:1,2013-09-01T16:00:00Z,30.6671,-87.9365,4.28,5.41,1111122 
DISL,ioos:station:DISL:MHPA:1,2013-09-01T16:30:00Z,30.6671,-87.9365,4.238,5.18,1111122 
DISL,ioos:station:DISL:MHPA:1,2013-09-01T17:00:00Z,30.6671,-87.9365,4.202,4.75,1111122 
DISL,ioos:station:DISL:MHPA:1,2013-09-01T17:30:00Z,30.6671,-87.9365,4.137,5.43,1111122 
DISL,ioos:station:DISL:MHPA:1,2013-09-01T18:00:00Z,30.6671,-87.9365,4.066,6.56,1111122 
DISL,ioos:station:DISL:MHPA:1,2013-09-01T18:30:00Z,30.6671,-87.9365,4.021,6.91,1111122 
DISL,ioos:station:DISL:MHPA:1,2013-09-01T19:00:00Z,30.6671,-87.9365,4.076,6.99,1111122 
DISL,ioos:station:DISL:MHPA:1,2013-09-01T19:30:00Z,30.6671,-87.9365,3.938,6.4,1111122 
DISL,ioos:station:DISL:MHPA:1,2013-09-01T20:00:00Z,30.6671,-87.9365,3.759,6.81,1111122 
DISL,ioos:station:DISL:MHPA:1,2013-09-01T20:30:00Z,30.6671,-87.9365,3.663,6.94,1111122 
DISL,ioos:station:DISL:MHPA:1,2013-09-01T21:00:00Z,30.6671,-87.9365,3.534,7.43,1111122 
DISL,ioos:station:DISL:MHPA:1,2013-09-01T21:30:00Z,30.6671,-87.9365,3.436,7.0,1111122 
DISL,ioos:station:DISL:MHPA:1,2013-09-01T22:00:00Z,30.6671,-87.9365,3.359,6.67,1111122 
DISL,ioos:station:DISL:MHPA:1,2013-09-01T22:30:00Z,30.6671,-87.9365,3.282,6.56,1111122 
DISL,ioos:station:DISL:MHPA:1,2013-09-01T23:00:00Z,30.6671,-87.9365,3.195,6.24,1111122 
DISL,ioos:station:DISL:MHPA:1,2013-09-01T23:30:00Z,30.6671,-87.9365,3.097,6.46,1111122 
DISL,ioos:station:DISL:MHPA:1,2013-09-02T00:00:00Z,30.6671,-87.9365,3.093,6.79,1111122 
DISL,ioos:station:DISL:MHPA:1,2013-09-02T00:30:00Z,30.6671,-87.9365,3.108,7.03,1111122 
DISL,ioos:station:DISL:MHPA:1,2013-09-02T01:00:00Z,30.6671,-87.9365,3.081,6.77,1111122 
DISL,ioos:station:DISL:MHPA:1,2013-09-02T01:30:00Z,30.6671,-87.9365,3.095,6.92,1111122 
DISL,ioos:station:DISL:MHPA:1,2013-09-02T02:00:00Z,30.6671,-87.9365,3.074,6.68,1111122 
DISL,ioos:station:DISL:MHPA:1,2013-09-02T02:30:00Z,30.6671,-87.9365,3.09,6.57,1111122 
DISL,ioos:station:DISL:MHPA:1,2013-09-02T03:00:00Z,30.6671,-87.9365,3.112,6.53,1111122 
DISL,ioos:station:DISL:MHPA:1,2013-09-02T03:30:00Z,30.6671,-87.9365,3.179,6.5,1111122 
DISL,ioos:station:DISL:MHPA:1,2013-09-02T04:00:00Z,30.6671,-87.9365,3.29,6.34,1111122 
DISL,ioos:station:DISL:MHPA:1,2013-09-02T04:30:00Z,30.6671,-87.9365,3.368,5.99,1111122 
DISL,ioos:station:DISL:MHPA:1,2013-09-02T05:00:00Z,30.6671,-87.9365,3.466,5.86,1111122 
DISL,ioos:station:DISL:MHPA:1,2013-09-02T05:30:00Z,30.6671,-87.9365,3.61,5.82,1111122 
DISL,ioos:station:DISL:MHPA:1,2013-09-02T06:00:00Z,30.6671,-87.9365,3.743,5.7,1111122 
DISL,ioos:station:DISL:MHPA:1,2013-09-02T06:30:00Z,30.6671,-87.9365,3.833,5.96,1111122 
DISL,ioos:station:DISL:MHPA:1,2013-09-02T07:00:00Z,30.6671,-87.9365,3.971,5.7,1111122 
DISL,ioos:station:DISL:MHPA:1,2013-09-02T07:30:00Z,30.6671,-87.9365,4.069,5.51,1111122 
DISL,ioos:station:DISL:MHPA:1,2013-09-02T08:00:00Z,30.6671,-87.9365,4.115,5.58,1111122 
DISL,ioos:station:DISL:MHPA:1,2013-09-02T08:30:00Z,30.6671,-87.9365,4.14,5.5,1111122 
DISL,ioos:station:DISL:MHPA:1,2013-09-02T09:00:00Z,30.6671,-87.9365,4.127,5.54,1111122 
DISL,ioos:station:DISL:MHPA:1,2013-09-02T09:30:00Z,30.6671,-87.9365,4.14,5.53,1111122 
DISL,ioos:station:DISL:MHPA:1,2013-09-02T10:00:00Z,30.6671,-87.9365,4.151,5.16,1111122 
DISL,ioos:station:DISL:MHPA:1,2013-09-02T10:30:00Z,30.6671,-87.9365,4.105,5.28,1111122 
DISL,ioos:station:DISL:MHPA:1,2013-09-02T11:00:00Z,30.6671,-87.9365,4.144,5.25,1111122 
DISL,ioos:station:DISL:MHPA:1,2013-09-02T11:30:00Z,30.6671,-87.9365,4.24,4.83,1111122 
DISL,ioos:station:DISL:MHPA:1,2013-09-02T12:00:00Z,30.6671,-87.9365,4.244,4.55,1111122 
DISL,ioos:station:DISL:MHPA:1,2013-09-02T12:30:00Z,30.6671,-87.9365,4.296,4.51,1111122 
DISL,ioos:station:DISL:MHPA:1,2013-09-02T13:00:00Z,30.6671,-87.9365,4.362,4.37,1111122 
DISL,ioos:station:DISL:MHPA:1,2013-09-02T13:30:00Z,30.6671,-87.9365,4.367,4.41,1111122 
DISL,ioos:station:DISL:MHPA:1,2013-09-02T14:00:00Z,30.6671,-87.9365,4.364,4.99,1111122 
DISL,ioos:station:DISL:MHPA:1,2013-09-02T14:30:00Z,30.6671,-87.9365,4.338,5.19,1111122 
DISL,ioos:station:DISL:MHPA:1,2013-09-02T15:00:00Z,30.6671,-87.9365,4.32,4.7,1111122 
DISL,ioos:station:DISL:MHPA:1,2013-09-02T15:30:00Z,30.6671,-87.9365,4.277,4.22,1111122 
DISL,ioos:station:DISL:MHPA:1,2013-09-02T16:00:00Z,30.6671,-87.9365,4.234,4.04,1111122 
DISL,ioos:station:DISL:MHPA:1,2013-09-02T16:30:00Z,30.6671,-87.9365,4.207,5.18,1111122 
DISL,ioos:station:DISL:MHPA:1,2013-09-02T17:00:00Z,30.6671,-87.9365,4.194,5.67,1111122 
DISL,ioos:station:DISL:MHPA:1,2013-09-02T17:30:00Z,30.6671,-87.9365,4.189,5.24,1111122 
DISL,ioos:station:DISL:MHPA:1,2013-09-02T18:00:00Z,30.6671,-87.9365,4.119,6.69,1111122 
DISL,ioos:station:DISL:MHPA:1,2013-09-02T18:30:00Z,30.6671,-87.9365,4.01,6.96,1111122 
DISL,ioos:station:DISL:MHPA:1,2013-09-02T19:00:00Z,30.6671,-87.9365,3.91,6.76,1111122 
DISL,ioos:station:DISL:MHPA:1,2013-09-02T19:30:00Z,30.6671,-87.9365,3.851,6.74,1111122 
DISL,ioos:station:DISL:MHPA:1,2013-09-02T20:00:00Z,30.6671,-87.9365,3.804,7.38,1111122 
DISL,ioos:station:DISL:MHPA:1,2013-09-02T20:30:00Z,30.6671,-87.9365,3.736,7.18,1111122 
DISL,ioos:station:DISL:MHPA:1,2013-09-02T21:00:00Z,30.6671,-87.9365,3.54,6.9,1111122 
DISL,ioos:station:DISL:MHPA:1,2013-09-02T21:30:00Z,30.6671,-87.9365,3.423,6.92,1111122 
DISL,ioos:station:DISL:MHPA:1,2013-09-02T22:00:00Z,30.6671,-87.9365,3.332,6.19,1111122 
DISL,ioos:station:DISL:MHPA:1,2013-09-02T22:30:00Z,30.6671,-87.9365,3.268,6.24,1111122 
DISL,ioos:station:DISL:MHPA:1,2013-09-02T23:00:00Z,30.6671,-87.9365,3.297,7.08,1111122 
DISL,ioos:station:DISL:MHPA:1,2013-09-02T23:30:00Z,30.6671,-87.9365,3.286,7.79,1111122 
DISL,ioos:station:DISL:MHPA:1,2013-09-03T00:00:00Z,30.6671,-87.9365,3.319,7.04,1111122 
DISL,ioos:station:DISL:MHPA:1,2013-09-03T00:30:00Z,30.6671,-87.9365,3.327,7.05,1111122 
DISL,ioos:station:DISL:MHPA:1,2013-09-03T01:00:00Z,30.6671,-87.9365,3.256,6.75,1111122 
DISL,ioos:station:DISL:MHPA:1,2013-09-03T01:30:00Z,30.6671,-87.9365,3.261,7.04,1111122 
DISL,ioos:station:DISL:MHPA:1,2013-09-03T02:00:00Z,30.6671,-87.9365,3.321,6.8,1111122 
DISL,ioos:station:DISL:MHPA:1,2013-09-03T02:30:00Z,30.6671,-87.9365,3.358,6.32,1111122 
DISL,ioos:station:DISL:MHPA:1,2013-09-03T03:00:00Z,30.6671,-87.9365,3.363,6.49,1111122 
DISL,ioos:station:DISL:MHPA:1,2013-09-03T03:30:00Z,30.6671,-87.9365,3.374,6.13,1111122 
DISL,ioos:station:DISL:MHPA:1,2013-09-03T04:00:00Z,30.6671,-87.9365,3.411,5.25,1111122 
DISL,ioos:station:DISL:MHPA:1,2013-09-03T04:30:00Z,30.6671,-87.9365,3.563,5.38,1111122 
DISL,ioos:station:DISL:MHPA:1,2013-09-03T05:00:00Z,30.6671,-87.9365,3.717,5.75,1111122 
DISL,ioos:station:DISL:MHPA:1,2013-09-03T05:30:00Z,30.6671,-87.9365,3.788,5.67,1111122 
DISL,ioos:station:DISL:MHPA:1,2013-09-03T06:00:00Z,30.6671,-87.9365,3.847,5.7,1111122 
DISL,ioos:station:DISL:MHPA:1,2013-09-03T06:30:00Z,30.6671,-87.9365,3.978,5.79,1111122 
DISL,ioos:station:DISL:MHPA:1,2013-09-03T07:00:00Z,30.6671,-87.9365,4.034,5.66,1111122 
DISL,ioos:station:DISL:MHPA:1,2013-09-03T07:30:00Z,30.6671,-87.9365,3.999,5.55,1111122 
DISL,ioos:station:DISL:MHPA:1,2013-09-03T08:00:00Z,30.6671,-87.9365,3.974,5.42,1111122 
DISL,ioos:station:DISL:MHPA:1,2013-09-03T08:30:00Z,30.6671,-87.9365,4.021,4.79,1111122 
DISL,ioos:station:DISL:MHPA:1,2013-09-03T09:00:00Z,30.6671,-87.9365,4.01,4.86,1111122 
DISL,ioos:station:DISL:MHPA:1,2013-09-03T09:30:00Z,30.6671,-87.9365,3.968,4.32,1111122 
DISL,ioos:station:DISL:MHPA:1,2013-09-03T10:00:00Z,30.6671,-87.9365,3.968,4.58,1111122 
DISL,ioos:station:DISL:MHPA:1,2013-09-03T10:30:00Z,30.6671,-87.9365,3.992,4.3,1111122 
DISL,ioos:station:DISL:MHPA:1,2013-09-03T11:00:00Z,30.6671,-87.9365,3.937,4.2,1111122 
DISL,ioos:station:DISL:MHPA:1,2013-09-03T11:30:00Z,30.6671,-87.9365,3.957,4.32,1111122 
DISL,ioos:station:DISL:MHPA:1,2013-09-03T12:00:00Z,30.6671,-87.9365,4.056,4.72,1111122 
DISL,ioos:station:DISL:MHPA:1,2013-09-03T12:30:00Z,30.6671,-87.9365,4.106,4.46,1111122 
DISL,ioos:station:DISL:MHPA:1,2013-09-03T13:00:00Z,30.6671,-87.9365,4.084,4.09,1111122 
DISL,ioos:station:DISL:MHPA:1,2013-09-03T13:30:00Z,30.6671,-87.9365,4.143,4.3,1111122 
DISL,ioos:station:DISL:MHPA:1,2013-09-03T14:00:00Z,30.6671,-87.9365,4.196,4.2,1111122 
DISL,ioos:station:DISL:MHPA:1,2013-09-03T14:30:00Z,30.6671,-87.9365,4.246,4.24,1111122 
DISL,ioos:station:DISL:MHPA:1,2013-09-03T15:00:00Z,30.6671,-87.9365,4.291,4.47,1111122 
DISL,ioos:station:DISL:MHPA:1,2013-09-03T15:30:00Z,30.6671,-87.9365,4.245,4.74,1111122 
DISL,ioos:station:DISL:MHPA:1,2013-09-03T16:00:00Z,30.6671,-87.9365,4.238,5.27,1111122 
DISL,ioos:station:DISL:MHPA:1,2013-09-03T16:30:00Z,30.6671,-87.9365,4.265,5.5,1111122 
DISL,ioos:station:DISL:MHPA:1,2013-09-03T17:00:00Z,30.6671,-87.9365,4.248,5.35,1111122 
DISL,ioos:station:DISL:MHPA:1,2013-09-03T17:30:00Z,30.6671,-87.9365,4.287,6.53,1111122 
DISL,ioos:station:DISL:MHPA:1,2013-09-03T18:00:00Z,30.6671,-87.9365,4.306,6.92,1111122 
DISL,ioos:station:DISL:MHPA:1,2013-09-03T18:30:00Z,30.6671,-87.9365,4.346,6.53,1111122 
DISL,ioos:station:DISL:MHPA:1,2013-09-03T19:00:00Z,30.6671,-87.9365,4.284,6.9,1111122 
DISL,ioos:station:DISL:MHPA:1,2013-09-03T19:30:00Z,30.6671,-87.9365,4.16,6.95,1111122 
DISL,ioos:station:DISL:MHPA:1,2013-09-03T20:00:00Z,30.6671,-87.9365,4.076,7.28,1111122 
DISL,ioos:station:DISL:MHPA:1,2013-09-03T20:30:00Z,30.6671,-87.9365,3.994,7.46,1111122 
DISL,ioos:station:DISL:MHPA:1,2013-09-03T21:00:00Z,30.6671,-87.9365,3.937,7.44,1111122 
DISL,ioos:station:DISL:MHPA:1,2013-09-03T21:30:00Z,30.6671,-87.9365,3.885,7.42,1111122 
DISL,ioos:station:DISL:MHPA:1,2013-09-03T22:00:00Z,30.6671,-87.9365,3.728,6.8,1111122 
DISL,ioos:station:DISL:MHPA:1,2013-09-03T22:30:00Z,30.6671,-87.9365,3.555,7.14,1111122 
DISL,ioos:station:DISL:MHPA:1,2013-09-03T23:00:00Z,30.6671,-87.9365,3.736,6.93,1111122 
DISL,ioos:station:DISL:MHPA:1,2013-09-03T23:30:00Z,30.6671,-87.9365,3.573,6.17,1111122 
DISL,ioos:station:DISL:MHPA:1,2013-09-04T00:00:00Z,30.6671,-87.9365,3.377,5.32,1111122 
DISL,ioos:station:DISL:MHPA:1,2013-09-04T00:30:00Z,30.6671,-87.9365,3.187,5.02,1111122 
DISL,ioos:station:DISL:MHPA:1,2013-09-04T01:00:00Z,30.6671,-87.9365,3.05,5.25,1111122 
DISL,ioos:station:DISL:MHPA:1,2013-09-04T01:30:00Z,30.6671,-87.9365,2.901,5.27,1111122 
DISL,ioos:station:DISL:MHPA:1,2013-09-04T02:00:00Z,30.6671,-87.9365,2.961,5.14,1111122 
DISL,ioos:station:DISL:MHPA:1,2013-09-04T02:30:00Z,30.6671,-87.9365,3.172,5.09,1111122 
DISL,ioos:station:DISL:MHPA:1,2013-09-04T03:00:00Z,30.6671,-87.9365,3.159,5.13,1111122 
DISL,ioos:station:DISL:MHPA:1,2013-09-04T03:30:00Z,30.6671,-87.9365,3.226,5.07,1111122 
DISL,ioos:station:DISL:MHPA:1,2013-09-04T04:00:00Z,30.6671,-87.9365,3.206,4.7,1111122 
DISL,ioos:station:DISL:MHPA:1,2013-09-04T04:30:00Z,30.6671,-87.9365,3.089,4.88,1111122 
DISL,ioos:station:DISL:MHPA:1,2013-09-04T05:00:00Z,30.6671,-87.9365,2.973,4.82,1111122 
DISL,ioos:station:DISL:MHPA:1,2013-09-04T05:30:00Z,30.6671,-87.9365,3.021,4.67,1111122 
DISL,ioos:station:DISL:MHPA:1,2013-09-04T06:00:00Z,30.6671,-87.9365,3.198,4.81,1111122 
DISL,ioos:station:DISL:MHPA:1,2013-09-04T06:30:00Z,30.6671,-87.9365,3.383,4.6,1111122 
DISL,ioos:station:DISL:MHPA:1,2013-09-04T07:00:00Z,30.6671,-87.9365,3.552,4.56,1111122 
DISL,ioos:station:DISL:MHPA:1,2013-09-04T07:30:00Z,30.6671,-87.9365,3.583,4.32,1111122 
DISL,ioos:station:DISL:MHPA:1,2013-09-04T08:00:00Z,30.6671,-87.9365,3.601,4.26,1111122 
DISL,ioos:station:DISL:MHPA:1,2013-09-04T08:30:00Z,30.6671,-87.9365,3.661,3.75,1111122 
DISL,ioos:station:DISL:MHPA:1,2013-09-04T09:00:00Z,30.6671,-87.9365,3.648,3.78,1111122 
DISL,ioos:station:DISL:MHPA:1,2013-09-04T09:30:00Z,30.6671,-87.9365,3.625,3.8,1111122 
DISL,ioos:station:DISL:MHPA:1,2013-09-04T10:00:00Z,30.6671,-87.9365,3.684,3.72,1111122 
DISL,ioos:station:DISL:MHPA:1,2013-09-04T10:30:00Z,30.6671,-87.9365,3.62,3.69,1111122 
DISL,ioos:station:DISL:MHPA:1,2013-09-04T11:00:00Z,30.6671,-87.9365,3.592,3.51,1111122 
DISL,ioos:station:DISL:MHPA:1,2013-09-04T11:30:00Z,30.6671,-87.9365,3.656,3.78,1111122 
DISL,ioos:station:DISL:MHPA:1,2013-09-04T12:00:00Z,30.6671,-87.9365,3.713,3.47,1111122 
DISL,ioos:station:DISL:MHPA:1,2013-09-04T12:30:00Z,30.6671,-87.9365,3.765,3.26,1111122 
DISL,ioos:station:DISL:MHPA:1,2013-09-04T13:00:00Z,30.6671,-87.9365,3.795,3.02,1111122 
DISL,ioos:station:DISL:MHPA:1,2013-09-04T13:30:00Z,30.6671,-87.9365,3.837,3.32,1111122 
DISL,ioos:station:DISL:MHPA:1,2013-09-04T14:00:00Z,30.6671,-87.9365,3.952,4.0,1111122 
DISL,ioos:station:DISL:MHPA:1,2013-09-04T14:30:00Z,30.6671,-87.9365,4.032,3.52,1111122 
DISL,ioos:station:DISL:MHPA:1,2013-09-04T15:00:00Z,30.6671,-87.9365,4.126,3.43,1111122 
DISL,ioos:station:DISL:MHPA:1,2013-09-04T15:30:00Z,30.6671,-87.9365,4.249,3.57,1111122 
DISL,ioos:station:DISL:MHPA:1,2013-09-04T16:00:00Z,30.6671,-87.9365,4.271,3.73,1111122 
DISL,ioos:station:DISL:MHPA:1,2013-09-04T16:30:00Z,30.6671,-87.9365,4.296,4.19,1111122 
DISL,ioos:station:DISL:MHPA:1,2013-09-04T17:00:00Z,30.6671,-87.9365,4.352,3.81,1111122 
DISL,ioos:station:DISL:MHPA:1,2013-09-04T17:30:00Z,30.6671,-87.9365,4.333,4.33,1111122 
DISL,ioos:station:DISL:MHPA:1,2013-09-04T18:00:00Z,30.6671,-87.9365,4.298,4.32,1111122 
DISL,ioos:station:DISL:MHPA:1,2013-09-04T18:30:00Z,30.6671,-87.9365,4.27,4.15,1111122 
DISL,ioos:station:DISL:MHPA:1,2013-09-04T19:00:00Z,30.6671,-87.9365,4.217,4.9,1111122 
DISL,ioos:station:DISL:MHPA:1,2013-09-04T19:30:00Z,30.6671,-87.9365,4.161,6.69,1111122 
DISL,ioos:station:DISL:MHPA:1,2013-09-04T20:00:00Z,30.6671,-87.9365,4.091,7.28,1111122 
DISL,ioos:station:DISL:MHPA:1,2013-09-04T20:30:00Z,30.6671,-87.9365,4.022,7.96,1111122 
DISL,ioos:station:DISL:MHPA:1,2013-09-04T21:00:00Z,30.6671,-87.9365,3.96,7.83,1111122 
DISL,ioos:station:DISL:MHPA:1,2013-09-04T21:30:00Z,30.6671,-87.9365,3.961,7.48,1111122 
DISL,ioos:station:DISL:MHPA:1,2013-09-04T22:00:00Z,30.6671,-87.9365,3.891,7.55,1111122 
DISL,ioos:station:DISL:MHPA:1,2013-09-04T22:30:00Z,30.6671,-87.9365,3.76,7.03,1111122 
DISL,ioos:station:DISL:MHPA:1,2013-09-04T23:00:00Z,30.6671,-87.9365,3.613,5.93,1111122 
DISL,ioos:station:DISL:MHPA:1,2013-09-04T23:30:00Z,30.6671,-87.9365,3.512,7.54,1111122 
DISL,ioos:station:DISL:MHPA:1,2013-09-05T00:00:00Z,30.6671,-87.9365,3.394,7.41,1111122 
DISL,ioos:station:DISL:MHPA:1,2013-09-05T00:30:00Z,30.6671,-87.9365,3.288,7.3,1111122 
DISL,ioos:station:DISL:MHPA:1,2013-09-05T01:00:00Z,30.6671,-87.9365,3.209,7.32,1111122 
DISL,ioos:station:DISL:MHPA:1,2013-09-05T01:30:00Z,30.6671,-87.9365,3.152,6.81,1111122 
DISL,ioos:station:DISL:MHPA:1,2013-09-05T02:00:00Z,30.6671,-87.9365,3.153,4.96,1111122 
DISL,ioos:station:DISL:MHPA:1,2013-09-05T02:30:00Z,30.6671,-87.9365,3.174,6.39,1111122 
DISL,ioos:station:DISL:MHPA:1,2013-09-05T03:00:00Z,30.6671,-87.9365,3.204,5.63,1111122 
DISL,ioos:station:DISL:MHPA:1,2013-09-05T03:30:00Z,30.6671,-87.9365,3.273,5.8,1111122 
DISL,ioos:station:DISL:MHPA:1,2013-09-05T04:00:00Z,30.6671,-87.9365,3.33,5.53,1111122 
DISL,ioos:station:DISL:MHPA:1,2013-09-05T04:30:00Z,30.6671,-87.9365,3.362,5.76,1111122 
DISL,ioos:station:DISL:MHPA:1,2013-09-05T05:00:00Z,30.6671,-87.9365,3.438,5.57,1111122 
DISL,ioos:station:DISL:MHPA:1,2013-09-05T05:30:00Z,30.6671,-87.9365,3.39,4.98,1111122 
DISL,ioos:station:DISL:MHPA:1,2013-09-05T06:00:00Z,30.6671,-87.9365,3.37,5.41,1111122 
DISL,ioos:station:DISL:MHPA:1,2013-09-05T06:30:00Z,30.6671,-87.9365,3.478,5.45,1111122 
DISL,ioos:station:DISL:MHPA:1,2013-09-05T07:00:00Z,30.6671,-87.9365,3.566,5.74,1111122 
DISL,ioos:station:DISL:MHPA:1,2013-09-05T07:30:00Z,30.6671,-87.9365,3.605,5.71,1111122 
DISL,ioos:station:DISL:MHPA:1,2013-09-05T08:00:00Z,30.6671,-87.9365,3.555,5.61,1111122 
DISL,ioos:station:DISL:MHPA:1,2013-09-05T08:30:00Z,30.6671,-87.9365,3.593,5.61,1111122 
DISL,ioos:station:DISL:MHPA:1,2013-09-05T09:00:00Z,30.6671,-87.9365,3.59,5.43,1111122 
DISL,ioos:station:DISL:MHPA:1,2013-09-05T09:30:00Z,30.6671,-87.9365,3.572,5.31,1111122 
DISL,ioos:station:DISL:MHPA:1,2013-09-05T10:00:00Z,30.6671,-87.9365,3.582,5.25,1111122 
DISL,ioos:station:DISL:MHPA:1,2013-09-05T10:30:00Z,30.6671,-87.9365,3.522,5.01,1111122 
DISL,ioos:station:DISL:MHPA:1,2013-09-05T11:00:00Z,30.6671,-87.9365,3.447,4.89,1111122 
DISL,ioos:station:DISL:MHPA:1,2013-09-05T11:30:00Z,30.6671,-87.9365,3.436,4.99,1111122 
DISL,ioos:station:DISL:MHPA:1,2013-09-05T12:00:00Z,30.6671,-87.9365,3.431,4.88,1111122 
DISL,ioos:station:DISL:MHPA:1,2013-09-05T12:30:00Z,30.6671,-87.9365,3.393,4.85,1111122 
DISL,ioos:station:DISL:MHPA:1,2013-09-05T13:00:00Z,30.6671,-87.9365,3.419,4.96,1111122 
DISL,ioos:station:DISL:MHPA:1,2013-09-05T13:30:00Z,30.6671,-87.9365,3.469,4.77,1111122 
DISL,ioos:station:DISL:MHPA:1,2013-09-05T14:00:00Z,30.6671,-87.9365,3.523,4.49,1111122 
DISL,ioos:station:DISL:MHPA:1,2013-09-05T14:30:00Z,30.6671,-87.9365,3.608,4.73,1111122 
DISL,ioos:station:DISL:MHPA:1,2013-09-05T15:00:00Z,30.6671,-87.9365,3.712,4.23,1111122 
DISL,ioos:station:DISL:MHPA:1,2013-09-05T15:30:00Z,30.6671,-87.9365,3.785,4.68,1111122 
DISL,ioos:station:DISL:MHPA:1,2013-09-05T16:00:00Z,30.6671,-87.9365,3.902,5.2,1111122 
DISL,ioos:station:DISL:MHPA:1,2013-09-05T16:30:00Z,30.6671,-87.9365,4.004,5.47,1111122 
DISL,ioos:station:DISL:MHPA:1,2013-09-05T17:00:00Z,30.6671,-87.9365,3.996,5.81,1111122 
DISL,ioos:station:DISL:MHPA:1,2013-09-05T17:30:00Z,30.6671,-87.9365,4.058,6.16,1111122 
DISL,ioos:station:DISL:MHPA:1,2013-09-05T18:00:00Z,30.6671,-87.9365,4.125,6.2,1111122 
DISL,ioos:station:DISL:MHPA:1,2013-09-05T18:30:00Z,30.6671,-87.9365,4.144,5.01,1111122 
DISL,ioos:station:DISL:MHPA:1,2013-09-05T19:00:00Z,30.6671,-87.9365,4.171,6.06,1111122 
DISL,ioos:station:DISL:MHPA:1,2013-09-05T19:30:00Z,30.6671,-87.9365,4.167,6.51,1111122 
DISL,ioos:station:DISL:MHPA:1,2013-09-05T20:00:00Z,30.6671,-87.9365,4.143,5.49,1111122 
DISL,ioos:station:DISL:MHPA:1,2013-09-05T20:30:00Z,30.6671,-87.9365,4.121,5.76,1111122 
DISL,ioos:station:DISL:MHPA:1,2013-09-05T21:00:00Z,30.6671,-87.9365,4.065,8.23,1111122 
DISL,ioos:station:DISL:MHPA:1,2013-09-05T21:30:00Z,30.6671,-87.9365,3.972,8.18,1111122 
DISL,ioos:station:DISL:MHPA:1,2013-09-05T22:00:00Z,30.6671,-87.9365,3.934,8.28,1111122 
DISL,ioos:station:DISL:MHPA:1,2013-09-05T22:30:00Z,30.6671,-87.9365,3.848,8.16,1111122 
DISL,ioos:station:DISL:MHPA:1,2013-09-05T23:00:00Z,30.6671,-87.9365,3.743,7.01,1111122 
DISL,ioos:station:DISL:MHPA:1,2013-09-05T23:30:00Z,30.6671,-87.9365,3.654,7.59,1111122 
DISL,ioos:station:DISL:MHPA:1,2013-09-06T00:00:00Z,30.6671,-87.9365,3.587,6.98,1111122 
DISL,ioos:station:DISL:MHPA:1,2013-09-06T00:30:00Z,30.6671,-87.9365,3.536,6.23,1111122 
DISL,ioos:station:DISL:MHPA:1,2013-09-06T01:00:00Z,30.6671,-87.9365,3.449,6.73,1111122 
DISL,ioos:station:DISL:MHPA:1,2013-09-06T01:30:00Z,30.6671,-87.9365,3.363,6.64,1111122 
DISL,ioos:station:DISL:MHPA:1,2013-09-06T02:00:00Z,30.6671,-87.9365,3.311,6.02,1111122 
DISL,ioos:station:DISL:MHPA:1,2013-09-06T02:30:00Z,30.6671,-87.9365,3.282,6.09,1111122 
DISL,ioos:station:DISL:MHPA:1,2013-09-06T03:00:00Z,30.6671,-87.9365,3.31,6.12,1111122 
DISL,ioos:station:DISL:MHPA:1,2013-09-06T03:30:00Z,30.6671,-87.9365,3.353,6.45,1111122 
DISL,ioos:station:DISL:MHPA:1,2013-09-06T04:00:00Z,30.6671,-87.9365,3.434,6.17,1111122 
DISL,ioos:station:DISL:MHPA:1,2013-09-06T04:30:00Z,30.6671,-87.9365,3.51,6.3,1111122 
DISL,ioos:station:DISL:MHPA:1,2013-09-06T05:00:00Z,30.6671,-87.9365,3.555,6.69,1111122 
DISL,ioos:station:DISL:MHPA:1,2013-09-06T05:30:00Z,30.6671,-87.9365,3.656,6.57,1111122 
DISL,ioos:station:DISL:MHPA:1,2013-09-06T06:00:00Z,30.6671,-87.9365,3.66,6.44,1111122 
DISL,ioos:station:DISL:MHPA:1,2013-09-06T06:30:00Z,30.6671,-87.9365,3.634,6.4,1111122 
DISL,ioos:station:DISL:MHPA:1,2013-09-06T07:00:00Z,30.6671,-87.9365,3.666,6.42,1111122 
DISL,ioos:station:DISL:MHPA:1,2013-09-06T07:30:00Z,30.6671,-87.9365,3.675,6.3,1111122 
DISL,ioos:station:DISL:MHPA:1,2013-09-06T08:00:00Z,30.6671,-87.9365,3.625,6.04,1111122 
DISL,ioos:station:DISL:MHPA:1,2013-09-06T08:30:00Z,30.6671,-87.9365,3.642,5.79,1111122 
DISL,ioos:station:DISL:MHPA:1,2013-09-06T09:00:00Z,30.6671,-87.9365,3.622,5.86,1111122 
DISL,ioos:station:DISL:MHPA:1,2013-09-06T09:30:00Z,30.6671,-87.9365,3.515,5.64,1111122 
DISL,ioos:station:DISL:MHPA:1,2013-09-06T10:00:00Z,30.6671,-87.9365,3.477,5.41,1111122 
DISL,ioos:station:DISL:MHPA:1,2013-09-06T10:30:00Z,30.6671,-87.9365,3.449,5.21,1111122 
DISL,ioos:station:DISL:MHPA:1,2013-09-06T11:00:00Z,30.6671,-87.9365,3.401,5.01,1111122 
DISL,ioos:station:DISL:MHPA:1,2013-09-06T11:30:00Z,30.6671,-87.9365,3.333,4.94,1111122 
DISL,ioos:station:DISL:MHPA:1,2013-09-06T12:00:00Z,30.6671,-87.9365,3.282,5.0,1111122 
DISL,ioos:station:DISL:MHPA:1,2013-09-06T12:30:00Z,30.6671,-87.9365,3.241,4.89,1111122 
DISL,ioos:station:DISL:MHPA:1,2013-09-06T13:00:00Z,30.6671,-87.9365,3.199,4.8,1111122 
DISL,ioos:station:DISL:MHPA:1,2013-09-06T13:30:00Z,30.6671,-87.9365,3.152,4.43,1111122 
DISL,ioos:station:DISL:MHPA:1,2013-09-06T14:00:00Z,30.6671,-87.9365,3.169,4.78,1111122 
DISL,ioos:station:DISL:MHPA:1,2013-09-06T14:30:00Z,30.6671,-87.9365,3.249,4.91,1111122 
DISL,ioos:station:DISL:MHPA:1,2013-09-06T15:00:00Z,30.6671,-87.9365,3.297,5.13,1111122 
DISL,ioos:station:DISL:MHPA:1,2013-09-06T15:30:00Z,30.6671,-87.9365,3.385,5.26,1111122 